TimeEST,TemperatureF,Dew PointF,Humidity,Sea Level PressureIn,VisibilityMPH,Wind Direction,Wind SpeedMPH,Gust SpeedMPH,PrecipitationIn,Events,Conditions,WindDirDegrees,DateUTC
12:44 AM,46.4,44.6,93,30.35,1.5,NW,3.5,-,N/A,,Clear,320,2012-12-01 05:44:00
12:50 AM,44.6,42.8,93,30.35,0.5,Calm,Calm,-,N/A,Fog,Fog,0,2012-12-01 05:50:00
12:56 AM,43.0,42.1,97,30.36,0.2,NNW,3.5,-,0.01,Fog,Fog,330,2012-12-01 05:56:00
1:01 AM,44.6,42.8,93,30.35,0.5,NNW,3.5,-,N/A,Fog,Fog,330,2012-12-01 06:01:00
1:12 AM,46.4,44.6,93,30.34,0.8,NNW,3.5,-,N/A,,Mist,340,2012-12-01 06:12:00
1:20 AM,46.4,46.4,100,30.35,0.5,NNW,4.6,-,N/A,Fog,Fog,330,2012-12-01 06:20:00
1:27 AM,46.4,46.4,100,30.35,0.2,NNW,4.6,-,N/A,Fog,Fog,330,2012-12-01 06:27:00
1:33 AM,48.2,46.4,93,30.35,0.8,NNW,3.5,-,N/A,,Clear,340,2012-12-01 06:33:00
1:38 AM,48.2,46.4,93,30.35,2.0,NNW,4.6,-,N/A,,Clear,340,2012-12-01 06:38:00
1:46 AM,48.2,46.4,93,30.35,4.0,NNW,3.5,-,N/A,,Clear,340,2012-12-01 06:46:00
1:56 AM,48.9,46.9,93,30.36,3.0,Calm,Calm,-,N/A,,Clear,0,2012-12-01 06:56:00
2:00 AM,48.2,46.4,93,30.35,1.8,NW,3.5,-,N/A,,Clear,320,2012-12-01 07:00:00
2:10 AM,48.2,46.4,93,30.35,0.8,NNW,3.5,-,N/A,,Clear,330,2012-12-01 07:10:00
2:19 AM,48.2,46.4,93,30.35,1.0,Calm,Calm,-,N/A,,Clear,0,2012-12-01 07:19:00
2:32 AM,46.4,46.4,100,30.35,0.2,Calm,Calm,-,N/A,Fog,Fog,0,2012-12-01 07:32:00
2:41 AM,44.6,42.8,93,30.35,0.2,WSW,3.5,-,N/A,Fog,Fog,240,2012-12-01 07:41:00
2:51 AM,44.6,42.8,93,30.36,0.2,WSW,4.6,-,N/A,Fog,Fog,250,2012-12-01 07:51:00
2:56 AM,44.1,42.1,93,30.37,0.2,WSW,4.6,-,N/A,Fog,Fog,240,2012-12-01 07:56:00
3:07 AM,42.8,41.0,93,30.36,0.2,West,3.5,-,N/A,Fog,Fog,260,2012-12-01 08:07:00
3:44 AM,44.6,42.8,93,30.35,0.5,Calm,Calm,-,N/A,Fog,Fog,0,2012-12-01 08:44:00
3:50 AM,46.4,46.4,100,30.34,1.0,Calm,Calm,-,N/A,,Clear,0,2012-12-01 08:50:00
3:53 AM,46.4,46.4,100,30.34,3.0,Calm,Calm,-,N/A,,Clear,0,2012-12-01 08:53:00
3:56 AM,46.0,45.0,96,30.36,4.0,Calm,Calm,-,N/A,,Clear,0,2012-12-01 08:56:00
4:07 AM,44.6,44.6,100,30.35,1.8,NW,4.6,-,N/A,,Clear,310,2012-12-01 09:07:00
4:13 AM,44.6,44.6,100,30.35,0.5,NW,5.8,-,N/A,Fog,Fog,320,2012-12-01 09:13:00
4:42 AM,46.4,44.6,93,30.35,0.2,Calm,Calm,-,N/A,Fog,Fog,0,2012-12-01 09:42:00
5:07 AM,46.4,46.4,100,30.35,3.0,Calm,Calm,-,N/A,,Clear,0,2012-12-01 10:07:00
5:56 AM,48.0,46.0,93,30.37,5.0,North,3.5,-,N/A,,Clear,360,2012-12-01 10:56:00
6:09 AM,48.2,46.4,93,30.36,1.5,Calm,Calm,-,N/A,,Clear,0,2012-12-01 11:09:00
6:20 AM,48.2,46.4,93,30.37,4.0,North,3.5,-,N/A,,Clear,10,2012-12-01 11:20:00
6:42 AM,48.2,46.4,93,30.37,1.8,Calm,Calm,-,N/A,,Clear,0,2012-12-01 11:42:00
6:56 AM,48.0,46.0,93,30.39,0.8,Calm,Calm,-,N/A,,Clear,0,2012-12-01 11:56:00
7:03 AM,48.2,46.4,93,30.38,1.2,Calm,Calm,-,N/A,,Clear,0,2012-12-01 12:03:00
7:08 AM,48.2,46.4,93,30.38,0.5,Calm,Calm,-,0.01,Fog,Fog,0,2012-12-01 12:08:00
7:16 AM,46.4,46.4,100,30.38,0.2,Calm,Calm,-,0.01,Fog,Fog,0,2012-12-01 12:16:00
7:24 AM,46.4,46.4,100,30.38,0.2,Calm,Calm,-,0.01,Fog,Fog,0,2012-12-01 12:24:00
7:56 AM,45.0,45.0,100,30.41,0.2,Calm,Calm,-,0.01,Fog,Fog,0,2012-12-01 12:56:00
8:21 AM,48.2,46.4,93,30.40,0.8,Calm,Calm,-,N/A,,Clear,0,2012-12-01 13:21:00
8:26 AM,48.2,48.2,100,30.40,2.5,Calm,Calm,-,N/A,,Clear,0,2012-12-01 13:26:00
8:34 AM,51.8,48.2,88,30.41,4.0,Calm,Calm,-,N/A,,Clear,0,2012-12-01 13:34:00
8:56 AM,53.1,50.0,89,30.42,7.0,Calm,Calm,-,N/A,,Clear,0,2012-12-01 13:56:00
9:56 AM,60.1,48.9,67,30.43,10.0,Calm,Calm,-,N/A,,Clear,0,2012-12-01 14:56:00
10:56 AM,57.9,42.1,56,30.43,10.0,ENE,5.8,-,N/A,,Clear,70,2012-12-01 15:56:00
11:56 AM,55.9,45.0,67,30.41,10.0,ENE,5.8,-,N/A,,Clear,70,2012-12-01 16:56:00
12:56 PM,57.9,41.0,53,30.38,10.0,ENE,5.8,-,N/A,,Clear,60,2012-12-01 17:56:00
1:56 PM,59.0,41.0,51,30.37,10.0,ENE,6.9,-,N/A,,Clear,60,2012-12-01 18:56:00
2:56 PM,59.0,41.0,51,30.37,10.0,East,5.8,-,N/A,,Clear,90,2012-12-01 19:56:00
3:56 PM,59.0,44.1,58,30.36,10.0,ESE,5.8,-,N/A,,Clear,110,2012-12-01 20:56:00
4:56 PM,54.0,45.0,72,30.36,10.0,ESE,5.8,-,N/A,,Clear,110,2012-12-01 21:56:00
5:56 PM,54.0,45.0,72,30.38,10.0,ESE,3.5,-,N/A,,Clear,120,2012-12-01 22:56:00
6:56 PM,50.0,45.0,83,30.40,9.0,SSE,5.8,-,N/A,,Clear,160,2012-12-01 23:56:00
7:56 PM,50.0,43.0,77,30.40,10.0,Calm,Calm,-,N/A,,Clear,0,2012-12-02 00:56:00
8:56 PM,51.1,45.0,80,30.41,10.0,Calm,Calm,-,N/A,,Clear,0,2012-12-02 01:56:00
9:56 PM,50.0,46.0,86,30.41,9.0,Calm,Calm,-,N/A,,Clear,0,2012-12-02 02:56:00
10:56 PM,50.0,46.9,89,30.42,8.0,Calm,Calm,-,N/A,,Clear,0,2012-12-02 03:56:00
11:56 PM,50.0,48.0,93,30.41,8.0,Calm,Calm,-,N/A,,Clear,0,2012-12-02 04:56:00